Location: Boiro
(42.6475°N, 8.8834°W)
Time: 06:11:46
(UTC+02:00)

SL-8 DEB - Pass Details

Date: 05 July 2022
Orbit: 890 x 1013 km, 83.1° (Epoch: 16 August)

Event Time Altitude Azimuth Distance (km) Brightness Sun altitude
Rises 00:27:50 0° 358° (N) 3,602 ? -17.8°
Reaches altitude 10° 00:30:31 10° 6° (N) 2,635 ? -18.1°
Maximum altitude 00:36:08 41° 76° (ENE) 1,288 ? -18.6°
Enters shadow 00:38:30 29° 124° (ESE) 1,602 ? -18.8°
